Gulf - Magdalen - western half: Past 24 Hour Conditions

 

Argentia

07:30 PM NDT 22 September 2014
This table is a summary of hourly weather conditions for the past 24 hours.
Date / Time
(NDT)
Wind(knots) Conditions Visibility(km) Pressure(kPa) Air tempC) Relative humidity(%) Dew pointC) Humidex
22 September 2014
19:30 SSW 39 gust 49 N/A N/A 100.5 20 94 19 27
18:30 SSW 40 gust 50 N/A N/A 100.5 21 90 20 29
17:30 S 38 gust 49 N/A N/A 100.5 22 87 20 29
16:30 S 37 gust 50 N/A N/A 100.6 21 87 19 28
15:30 S 32 gust 48 N/A N/A 100.8 20 89 18 27
14:30 S 39 gust 47 N/A N/A 100.9 21 89 19 27
13:30 S 27 gust 41 N/A N/A 101.1 20 89 18 26
12:30 SSE 28 gust 38 N/A N/A 101.2 19 87 16 *
11:30 SSE 28 gust 37 N/A N/A 101.4 20 80 16 *
10:30 S 24 gust 34 N/A N/A 101.6 20 75 16 25
9:30 S 24 gust 31 N/A N/A 101.7 20 80 16 *
8:30 S 20 gust 27 N/A N/A 101.8 20 82 17 *
7:30 S 18 gust 23 N/A N/A 101.8 19 79 15 *
6:30 SSW 18 gust 23 N/A N/A 101.8 19 84 16 *
5:30 SSW 18 gust 24 N/A N/A 101.9 19 85 17 *
4:30 SSW 18 gust 28 N/A N/A 101.9 19 87 17 *
3:30 SSW 18 N/A N/A 102.0 17 93 16 *
2:30 SSW 19 gust 24 N/A N/A 102.0 17 94 16 *
1:30 SSW 16 gust 21 N/A N/A 102.1 16 94 15 *
0:30 SSW 16 gust 21 N/A N/A 102.1 16 94 15 *
21 September 2014
23:30 SSW 16 N/A N/A 102.2 16 94 15 *
22:30 SSW 15 gust 24 N/A N/A 102.1 15 93 14 *
21:30 SSW 17 gust 22 N/A N/A 102.1 16 92 14 *
20:30 SSW 17 N/A N/A 102.1 15 92 14 *
19:30 SSW 15 gust 21 N/A N/A 102.1 15 92 14 *
 
Map of Atlantic - Newfoundland marine weather areas Southwestern Grand Banks - 44138 Banquereau - 44139 Tail of the Bank - 44140 Nickerson Bank - 44251 Northeast Burgeo Bank - 44255 Blanc-Sablon Airport Cap Whittle Chevery Natashquan Airport Heath Point Miscou Island Grand Étang Ingonish Beach North Mountain St.Paul Island J.A. Douglas McCurdy Sydney Airport Charlottetown Airport East Point North Cape Argentia Bonavista Burgeo Cape Race Corner Brook Daniel's Harbour Englee Ferolle Point La Scie Port aux Basques Rocky Harbour Sagona Island St. Anthony Airport St. John's Int'l Airport St. Lawrence Stephenville Airport Twillingate Winterland Wreckhouse Cartwright Airport Mary's Harbour Grates Cove Pool's Island Marticot Island Long Pond Îles de la Madeleine Airport
Legend: buoyBuoy land stationLand Station